www.pogodaiklimat.ru

Погода и климат >> Архив погоды >> Россия >> Чукотка >> Эгвекинот


АРХИВ ПОГОДЫ в Эгвекиноте

Время (UTC), дата Ветер
(напр.,м/с)
 
Видим.   Явления Облачность Т
(С)
Тd
(С)
f
(%)
Тe
(С)
Тes
(С)
Комфортность P
(гПа)
Po
(гПа)
Тmin
(С)
Tmax
(С)
R
(мм)
R24
(мм)
S
(см)
15 13.03 С 15-25
{25}
20 км сильный позёмок ясно -16.8 -25.2 48 -32 -32 опасность
обморожения
1011.3 1008.3
18 13.03 С 15-24
{26}
2000 м метель ясно -17.4 -25.1 51 -32 -32 опасность
обморожения
1010.0 1007.0 -17.8 71
21 13.03 С 14-22
{25}
2000 м метель 8/0
[Ac trans Ci fib]
-16.5 -25.0 48 -31 -31 опасность
обморожения
1009.0 1006.0 -17.8
00 14.03 С 13-22
{26}
2000 м метель 8/0
[Ac trans Ci sp]
-15.2 -24.0 47 -29 -29 1007.5 1004.5
03 14.03 С 13-21
{23}
2000 м метель 10/0
[As op]
-15.3 -22.3 55 -29 -29 1006.6 1003.3
06 14.03 С 11-17
{21}
1000 м слаб. снег {метель} 10/0
[As op]
-14.2 -20.3 60 -26 -26 1005.5 1002.5 -13.4 0.0
09 14.03 СЗ 11-19
{20}
1000 м слаб. снег {метель} 10/0
[As op]
-15.9 -20.5 68 -29 -29 1004.7 1001.7
12 14.03 С 16-23
{24}
500 м слаб. снег {метель} 10/0
[As op]
-16.4 -21.1 67 -31 -31 опасность
обморожения
1002.9 999.9
15 14.03 СЗ 12-20
{24}
1000 м слаб. снег {метель} 10/0
[As op]
-14.8 -19.4 68 -28 -28 1001.2 998.2
18 14.03 СЗ 11-19
{23}
1000 м слаб. снег {метель} 10/0
[As op]
-15.0 -20.1 65 -27 -27 1000.7 997.7 -16.6 1 70
21 14.03 С 11-20
{23}
200 м снег {метель} ?/? -14.2 -17.3 77 -26 -26 1000.5 997.5 -16.6
00 15.03 С 12-22
{22}
200 м снег {метель} ?/? -12.7 -16.1 76 -25 -25 1000.1 997.1
03 15.03 С 11-20
{22}
200 м снег {метель} ?/? -12.9 -16.8 73 -25 -25 1000.5 997.5
06 15.03 С 14-22
{23}
1000 м метель {снег} 10/3 1500 м
[Sc Ci sp]
-14.0 -20.1 60 -27 -27 1001.0 998.0 -12.6 3
09 15.03 СЗ 9-17
{24}
2000 м метель 6/3 1500 м
[Sc Ci sp]
-13.4 -19.8 59 -24 -24 1001.3 998.3
12 15.03 СЗ 10-18
{20}
2000 м метель 6/1 1500 м
[Sc Ci sp]
-13.6 -20.5 56 -25 -25 1001.4 998.4
15 15.03 СЗ 9-17
{22}
2000 м метель 6/1 1500 м
[Sc Ci sp]
-14.5 -21.2 57 -26 -26 1001.9 998.9
18 15.03 С 10-18
{22}
2000 м метель 10/5 1500 м
[Sc Cs]
-15.0 -21.1 60 -27 -27 1002.2 999.2 -15.8 70
21 15.03 СЗ 8-16
{18}
4000 м слаб. снег {метель} 10/5 1000 м
[Sc Cs]
-14.5 -21.8 54 -25 -25 1002.5 999.5 -15.8
00 16.03 С 10-18
{19}
1000 м слаб. снег {метель} 10/6 1000 м
[Sc As op]
-15.1 -21.1 60 -27 -27 1003.1 1000.1
03 16.03 СВ 7-12
{18}
4000 м слаб. снег {метель} 10/0
[As op]
-15.6 -21.1 63 -26 -26 1003.6 1000.6
06 16.03 С 5
{12}
20 км в посл. час снег {метель} 10/0
[Ac trans Cs]
-16.6 -23.6 55 -26 -26 1004.7 1000.7 -14.2 0.8
09 16.03 С 5
{10}
20 км 5/0
[Ci sp]
-17.3 -25.1 51 -27 -27 1004.1 1001.1
12 16.03 С 8-11
{11}
20 км позёмок 5/0
[Ci fib]
-16.9 -24.9 50 -28 -28 1004.0 1001.0
15 16.03 С 8-11
{12}
20 км позёмок 5/0
[Ci fib]
-16.7 -24.5 51 -28 -28 1004.2 1001.2
18 16.03 С 3
{13}
20 км {метель} 5/0
[Ci fib]
-16.3 -23.7 53 -23 -23 1004.3 1001.3 -18.8 70
21 16.03 С 6-10
{12}
20 км 1/0
[Ac lent]
-14.9 -23.3 49 -24 -24 1004.4 1001.4 -18.8
00 17.03 С 6-10
{12}
20 км 8/0
[Ci sp]
-14.1 -22.7 48 -23 -22 1004.2 1001.2
03 17.03 С 7-13
{13}
20 км 10/0
[Cs]
-14.6 -22.6 51 -25 -24 1003.5 1000.5
06 17.03 С 8-11
{13}
20 км позёмок {снег} 10/0
[Ci sp]
-15.3 -21.7 58 -26 -26 1003.6 1000.6 -13.9 0.0
09 17.03 С 8-10
{11}
20 км {метель} 8/0
[Ci sp]
-16.7 -22.8 59 -28 -28 1003.9 1000.9
12 17.03 С 7-11
{11}
20 км {метель} 10/0
[Ci sp]
-16.5 -23.4 55 -27 -27 1003.4 1000.4
15 17.03 Ю 3
{11}
20 км 10/0
[Ci sp]
-18.4 -23.7 63 -26 -26 1002.5 999.5
18 17.03 Ю 2
{5}
10 км ясно -24.5 -28.0 73 -31 -31 опасность
обморожения
1002.0 998.9 -24.7 70
21 17.03 СВ 1
{3}
20 км 1/0
[Ci fib]
-22.3 -27.3 64 -26 -23 1001.1 998.1 -24.8
00 18.03 СВ 1
{2}
20 км 10/0
[Ci sp]
-19.1 -23.8 66 -22 -19 999.7 996.7
03 18.03 Ю 2
{4}
20 км 10/5 840 м
[Sc Ac trans Ci sp]
-18.0 -22.6 67 -23 -23 997.7 994.7
06 18.03 Ю 2
{4}
20 км ясно -21.6 -25.1 73 -28 -28 997.0 994.0 -16.7
09 18.03 СЗ 1
{3}
20 км ясно -25.4 -28.9 72 -29 -29 997.5 994.5
12 18.03 З 1
{2}
20 км ясно -26.3 -29.4 75 -30 -30 998.2 995.1
15 18.03 С 1
{4}
20 км ясно -29.2 -33.4 67 -33 -33 опасность
обморожения
998.9 995.7
18 18.03 штиль 0
{3}
20 км ясно -29.1 -33.0 69 -29 -29 1000.2 997.0 -30.5 70
21 18.03 Ю 2
{3}
20 км ясно -28.4 -32.6 67 -36 -34 опасность
обморожения
1001.7 998.5 -30.5
00 19.03 СВ 1
{3}
20 км ясно -25.9 -30.9 63 -30 -25 1002.4 999.3
03 19.03 штиль 0
{3}
20 км ясно -23.5 -29.3 59 -24 -21 1001.8 998.7
06 19.03 штиль 0
{3}
20 км ясно -26.6 -30.4 70 -27 -27 1001.6 998.5 -23.4
09 19.03 штиль 0
{3}
20 км 5/0
[Ci fib]
-28.6 -32.7 68 -29 -29 1002.2 999.0
12 19.03 штиль 0
{3}
20 км 8/0
[Ci sp]
-27.1 -31.1 69 -27 -27 1003.8 1000.7
15 19.03 С 1
{3}
20 км ясно -28.3 -32.0 70 -32 -32 опасность
обморожения
1005.8 1002.6
18 19.03 Ю 2
{5}
20 км 3/0
[Ci fib]
-31.0 -35.6 64 -39 -39 опасность
обморожения
1008.5 1005.3 -31.4 69
21 19.03 С 4
{6}
20 км ясно -27.4 -31.7 67 -38 -37 опасность
обморожения
1011.4 1008.3 -32.3
00 20.03 Ю 2
{7}
20 км 6/0
[Ci sp]
-26.6 -31.6 63 -34 -30 опасность
обморожения
1014.2 1011.1
03 20.03 С 2
{6}
20 км 10/0
[Ci fib]
-22.9 -29.6 54 -29 -28 1014.9 1011.8
06 20.03 С 1
{4}
20 км 8/0
[Ci fib]
-25.3 -30.4 62 -29 -29 1017.0 1013.9 -22.4
09 20.03 С 1
{4}
20 км 8/0
[Ci fib]
-27.6 -32.2 65 -31 -31 опасность
обморожения
1019.4 1016.2
12 20.03 С 1
{4}
20 км 6/0
[Ci fib]
-28.1 -32.8 64 -32 -32 опасность
обморожения
1020.4 1017.2

 

Местоположение метеостанции Эгвекинот (Чукотка, Россия): широта 66.35 долгота -179.00 высота над уровнем моря 22 м.

В архиве по умолчанию представлена погода в Эгвекиноте за последнюю неделю. Архивные данные за месяц целиком и за предыдущие месяцы, начиная с января 2011 года, Вы можете получить, выбрав интересующий диапазон дат из раскрывающегося списка и нажав кнопку "Ввод!".


*Определитесь, кто Вы:
робот инопланетянин человек

Внимание! Время в таблицах - всемирное. Для получения местного времени необходимо прибавить поправку, которая равна 12 ч.

Смотрите также архив погоды в соседних городах и на ближайших метеорологических станциях:

Погода на Мысе Ванкарем (Чукотка, Россия) (239 км)
Погода на Мысе Шмидта (Чукотка, Россия) (280 км)
Погода в Уэлене (Чукотка, Россия) (448 км)
Погода на Острове Врангеля (Чукотка, Россия) (517 км)

Пояснения к столбцам:

Ветер - указаны скорость ветра в м/с - средняя за 10 мин, порывы в срок и между сроками (в фигурных скобках) и направление, откуда дует ветер: С - северный, СВ - северо-восточный, В - восточный, ЮВ - юго-восточный, Ю - южный, ЮЗ - юго-западный, З - западный, СЗ - северо-западный.
Видимость - горизонтальная дальность видимости в метрах или километрах. При видимости от 1 до 10 км при отсутствии осадков обычно наблюдается дымка, при ухудшении видимости до 1 км и менее - туман. В сухую погоду видимость может ухудшаться дымом, пылью или мглою.
Явления - указаны атмосферные явления, наблюдавшиеся в срок или в последний час перед сроком; фигурными скобками обозначены явления, наблюдавшиеся между сроками (за 1-3 часа до срока); квадратными скобками обозначены град или гололедные отложения с указанием их диаметра в мм.
Облачность - указаны через наклонную черту общая и нижняя облачность в баллах и высота нижней границы облаков в метрах; квадратными скобками обозначены формы облаков: Ci - перистые, Cs - перисто-слоистые, Cc - перисто-кучевые, Ac - высококучевые, As - высокослоистые, Sc - слоисто-кучевые, Ns - слоисто-дождевые, Cu - кучевые, Cb - кучево-дождевые. Подробнее классификацию облаков см. в Атласе облаков (PDF).
T - Температура воздуха - температура, измеренная на высоте 2 м над землей.
Td - Температура точки росы - температура, при понижении до которой содержащийся в воздухе водяной пар достигнет насыщения.
f - Относительная влажность воздуха - влажноcть воздуха, измеренная на высоте 2 м над землей.
Te - Эффективная температура - температура, которую ощущает одетый по сезону человек в тени. Характеристика душности погоды. При расчете учитывается влияние влажности воздуха и скорости ветра на теплоощущения человека.
Tes - Эффективная температура на солнце - температура, которую ощущает человек, с поправкой на солнечный нагрев. Характеристика знойности погоды. Зависит от высоты солнца над горизонтом, облачности и скорости ветра. Ночью, в пасмурную погоду, а также при ветре 12 м/с и более поправка равна нулю.
P - Атмосферное давление - приведенное к уровню моря атмосферное давление.
Po - Атмосферное давление - измеренное на уровне метеостанции атмосферное давление.
Tmin - Минимальная температура - минимум температуры воздуха на высоте 2 м над землей.
Tmax - Максимальная температура - максимум температуры воздуха на высоте 2 м над землей.
R - Количество осадков - Количество выпавших осадков за период времени, мм. При наведении курсора мыши на число - период времени, за который выпало указанное количество осадков.
R24 - Количество осадков - Количество выпавших осадков за 24 часа, мм.
S - Снежный покров - Высота снежного покрова, см. При наведении курсора мыши на число - состояние снежного покрова и степень покрытия местности в баллах.